sat.trackr.live / text

‹ back to catalog

STARLINK-3273

NORAD 50191 · 2021-125AM

PAYLOAD ACTIVE UNKNOWN

§ Identity

Operator
Country
US
Launch date
2021-12-18
Launch site
AFWTR
Launch vehicle
Mass (kg)
RCS (m²)

Purposes: comms

External: N2YO · Heavens-Above · Gunter

§ Orbital elements

Epoch: 2026-09-09T23:29:38.023584Z

Period
93.85 min
Inclination
53.1582°
Eccentricity
0.0001441
Mean motion
15.34391532 rev/d
Perigee alt
461.7 km
Apogee alt
463.7 km
Semi-major
6,840.9 km
B*
3.4611e-6
RAAN
140.5485°
Arg perigee
98.4200°
Mean anomaly
261.6966°
Rev number
26,442

§ Raw data

STARLINK-32731 50191U 21125AM  26252.97891231 -.00000259  00000+0  34611-5 0  99902 50191  53.1582 140.5485 0001441  98.4200 261.6966 15.34391532264422

JSON: /api/v1/satellites/50191 · /tle

For live sub-satellite position, see the globe view (requires WebGL).

§ Visibility from observer

Set your observer location to see the next 7 days of passes ≥ 10°. The values pass through the URL so the page stays shareable.

No JS? Fill the form by hand. The geolocation button needs JavaScript.